Theta_e
308 309 308 307 307 305 299 291 293 303 302 291 290 290 295 298 296 298 296 296 295 294 295 293 293 295 299 304 304 300 300 294 293 296 303 305 300 297 294 291 288 289 289 292
308 308 308 307 306 305 299 289 292 304 301 288 287 292 297 297 295 296 295 295 298 297 293 290 295 299 304 303 302 299 299 293 292 293 297 300 299 298 294 292 290 289 289 291
307 307 308 307 306 306 296 293 293 297 298 294 292 293 296 297 304 299 299 297 297 295 292 293 292 295 301 303 304 322 308 293 293 293 294 298 298 301 299 294 290 290 291 293
306 307 308 307 306 306 297 295 292 294 290 293 293 294 297 298 298 301 298 295 296 295 289 292 292 295 297 302 311 307 300 294 296 299 299 302 303 304 301 297 296 294 296 297
305 307 307 307 306 304 296 293 292 293 291 293 291 293 295 299 300 300 299 300 304 302 291 293 292 293 292 296 303 304 304 296 301 297 304 305 304 306 307 306 302 300 300 299
305 305 305 306 305 300 292 293 295 294 292 291 290 291 297 300 302 304 306 305 303 299 300 306 305 297 299 299 301 301 306 297 295 293 301 302 295 302 304 306 306 305 300 303
305 305 304 305 305 302 292 292 292 291 288 291 292 296 298 299 302 299 305 306 302 306 310 307 303 302 299 300 300 304 303 302 296 294 296 289 299 307 309 307 311 311 309 311
304 304 304 304 305 305 293 292 292 290 286 292 293 295 295 298 298 300 304 308 309 308 304 298 295 295 294 298 302 300 305 301 297 294 292 297 303 306 306 303 303 312 310 313
303 304 304 304 304 304 294 292 294 292 288 287 295 292 294 292 291 297 303 308 307 306 296 296 290 289 292 293 296 301 303 302 300 296 293 291 299 315 320 314 299 317 313 313
303 303 303 303 304 304 295 292 292 293 288 291 292 290 290 293 294 294 298 301 303 306 294 291 291 291 297 294 293 291 292 294 293 295 295 299 312 316 319 298 300 319 314 317
302 302 302 303 303 303 296 292 293 292 287 290 295 297 293 294 295 293 296 298 300 300 296 293 291 291 294 293 298 295 293 292 292 294 293 293 314 316 306 311 321 319 317 317
303 303 303 303 303 303 299 289 294 294 289 290 295 298 300 298 298 293 295 296 296 302 295 294 295 296 297 295 294 302 297 299 295 296 297 310 313 310 318 323 321 320 317 318
304 303 303 303 303 303 300 290 290 290 288 290 290 293 299 298 299 301 292 299 302 301 303 300 296 293 296 294 297 298 303 306 302 302 307 312 315 317 317 318 320 320 319 317
303 303 303 304 304 304 303 294 291 290 289 288 290 300 296 301 299 300 300 302 303 303 303 298 296 293 297 295 298 298 302 304 302 303 307 312 316 319 317 316 317 319 318 317
303 303 303 304 304 304 300 294 293 293 292 287 288 295 298 299 299 299 299 301 299 298 297 297 295 298 299 299 296 297 302 303 301 301 309 307 309 319 323 320 320 319 317 315
303 303 303 303 304 304 293 293 300 300 299 293 285 292 295 299 300 298 297 301 299 299 297 296 302 307 302 295 292 302 307 309 309 308 311 314 315 318 319 318 319 318 316 315
303 303 303 303 304 295 291 293 300 304 299 295 287 287 296 302 302 298 296 298 299 299 298 297 301 303 305 298 292 301 306 308 309 312 313 309 314 313 319 320 321 318 316 314
302 303 304 304 305 303 294 297 302 300 296 298 286 288 293 302 298 298 301 298 296 296 296 297 297 299 297 292 300 303 305 306 312 313 313 311 312 315 316 317 316 313 310 311
303 304 304 299 295 292 296 309 304 298 295 289 291 287 292 300 298 301 304 299 292 296 294 294 297 294 292 299 301 301 305 308 306 308 312 314 313 314 315 315 315 311 309 309
303 298 296 295 296 309 305 297 293 294 296 294 286 289 291 295 294 293 294 296 296 290 294 295 293 291 295 305 306 302 302 304 304 305 304 308 310 314 313 313 313 312 311 310
291 287 290 292 301 296 293 290 291 294 293 292 291 291 290 297 292 292 294 292 296 292 293 293 290 293 299 304 305 307 307 305 304 307 309 313 313 313 313 312 313 313 313 311
291 292 296 292 292 290 291 290 294 293 293 297 296 299 296 297 298 293 294 292 293 289 296 296 291 297 301 304 305 306 308 308 307 306 308 311 313 313 314 313 313 314 314 312
293 290 288 290 289 280 287 288 292 293 299 301 299 295 296 297 298 294 293 291 291 297 291 292 298 302 302 303 305 307 308 309 308 307 309 311 312 313 315 313 314 315 314 313
289 288 276 283 281 286 291 291 291 298 300 296 297 293 292 295 294 298 295 296 295 292 290 291 299 300 302 304 306 306 307 308 309 307 308 310 311 311 314 315 314 314 313 313
288 289 279 285 290 292 293 294 292 295 295 293 292 293 294 292 293 295 294 294 291 290 291 297 301 303 303 303 305 307 309 308 306 305 310 312 312 311 311 313 315 315 315 313
290 289 286 289 290 291 292 291 293 297 294 295 294 289 290 293 294 293 292 293 290 293 299 301 300 299 300 303 306 310 310 308 306 309 312 311 309 308 307 310 311 310 311 309
290 288 289 288 288 291 292 294 297 299 298 294 292 287 291 293 290 290 297 293 295 298 298 298 297 300 302 305 309 308 308 307 309 309 310 309 310 310 310 308 310 310 309 310
Wind_Speed
20 22 23 25 26 28 8 3 3 4 3 5 1 3 4 3 2 4 4 3 6 4 3 4 3 5 3 6 2 9 9 6 6 10 6 3 4 7 7 7 4 1 5 8
20 21 22 24 24 20 4 2 3 4 4 3 1 4 3 2 2 4 3 4 5 2 2 5 5 4 4 2 2 4 6 3 7 11 8 3 4 2 5 5 4 7 6 9
20 21 22 24 26 24 5 2 3 5 5 0 2 3 3 3 4 6 6 6 3 2 4 5 5 3 5 8 5 5 8 4 9 13 10 3 4 3 5 6 4 4 7 4
21 21 22 24 27 24 2 3 1 2 2 3 3 3 3 4 5 4 2 3 2 4 5 3 6 2 5 6 6 5 4 4 4 5 4 4 6 3 9 6 6 7 7 8
20 21 21 23 27 20 4 3 3 5 2 3 4 5 5 3 4 3 4 4 10 7 6 7 5 3 2 6 5 3 4 2 2 1 0 3 3 1 3 2 5 5 4 8
17 19 20 19 22 13 4 3 3 3 3 3 2 2 4 3 5 4 3 7 5 5 1 8 16 7 5 5 2 1 2 3 3 4 2 1 4 4 3 2 2 6 4 5
17 17 19 19 17 11 2 2 1 3 3 1 2 4 4 4 4 3 7 5 3 5 15 13 5 3 4 5 5 5 4 4 2 3 3 2 8 6 3 3 1 1 2 4
17 17 16 17 15 15 1 2 2 2 2 1 4 5 4 6 6 3 5 3 4 11 6 3 5 5 4 4 7 5 4 5 3 4 3 4 2 5 5 4 5 3 6 6
15 15 16 16 15 14 3 2 1 2 2 4 1 3 3 2 3 5 4 6 5 5 2 4 4 6 6 4 3 4 6 5 5 2 3 6 3 8 8 5 3 9 4 12
14 14 15 15 15 14 2 3 2 3 1 5 2 4 3 2 2 2 5 8 9 5 4 2 3 3 4 5 6 5 3 3 5 3 2 5 5 14 8 2 8 12 3 4
13 13 14 14 14 14 5 4 3 3 2 7 5 4 3 3 1 1 5 4 3 5 5 2 1 1 2 2 2 2 3 4 3 2 3 6 8 4 1 3 4 4 7 7
13 13 13 13 13 12 6 2 2 0 3 7 4 7 9 7 7 2 4 3 2 1 2 2 2 2 3 0 2 3 0 5 5 5 5 3 4 2 3 2 3 5 14 15
13 13 13 13 13 12 8 3 3 2 2 6 4 6 7 7 17 9 4 3 3 1 2 3 1 2 1 1 2 1 3 2 3 3 3 2 4 3 3 2 7 10 14 18
13 14 14 14 14 13 8 1 2 2 2 3 8 5 6 5 7 14 12 3 3 2 2 2 1 2 3 2 3 2 3 2 3 1 1 3 1 1 4 1 3 10 9 10
15 15 15 15 15 13 4 3 4 3 1 3 7 12 6 8 6 12 11 5 3 2 2 2 1 3 4 4 2 1 2 5 4 5 5 4 2 3 4 4 6 6 10 6
16 17 16 15 14 10 2 3 1 5 3 2 5 5 7 8 2 9 9 9 4 3 4 3 2 1 3 4 3 4 3 1 4 5 3 3 4 3 1 3 6 3 4 7
18 18 17 15 12 2 3 3 1 3 1 2 6 6 5 6 5 2 3 4 4 4 3 2 3 0 4 3 3 6 4 3 1 2 7 3 3 4 3 5 6 9 9 8
21 19 16 13 6 3 4 4 10 5 1 1 2 6 6 3 3 3 2 2 1 2 4 3 3 0 1 4 8 9 6 3 5 6 3 2 2 5 4 6 5 9 8 9
23 22 5 2 1 1 4 4 8 2 3 1 2 2 3 4 2 2 3 3 1 1 4 5 5 3 4 7 9 5 7 7 5 5 4 4 4 5 6 5 5 8 7 6
15 1 2 1 2 7 4 4 2 2 1 1 3 2 4 2 2 3 2 1 2 2 6 4 4 4 1 5 7 6 9 7 5 4 3 3 4 6 6 7 5 6 8 7
4 4 1 3 10 2 1 2 1 2 3 3 5 5 3 2 1 3 1 2 1 3 4 4 3 2 4 8 10 10 8 7 9 8 8 10 8 9 8 7 7 7 8 8
3 3 3 3 2 2 1 2 1 3 3 3 3 3 5 4 2 2 2 2 3 5 2 1 3 2 6 7 11 12 10 9 10 9 9 9 8 8 8 9 9 9 7 8
2 1 2 3 2 4 3 2 1 2 4 3 3 4 0 4 3 1 1 2 5 2 1 3 1 2 6 9 9 12 10 8 10 8 8 7 5 7 9 9 8 9 8 8
0 2 4 3 3 4 4 3 3 4 3 4 2 2 1 1 1 1 3 3 2 3 4 3 3 7 8 11 10 11 14 12 10 7 5 7 6 4 5 8 9 11 11 10
2 2 3 5 4 4 4 3 1 3 1 1 2 1 1 2 1 2 2 2 3 2 2 2 4 11 12 12 13 14 14 9 6 6 7 8 9 9 8 7 6 5 8 10
2 4 2 3 1 4 2 1 2 2 2 1 3 2 2 1 1 2 4 2 3 1 2 4 6 9 10 11 13 9 5 6 2 6 8 9 8 11 11 9 9 6 4 7
3 3 3 3 4 4 1 1 3 3 1 2 2 1 1 3 2 3 2 3 2 4 7 6 7 7 10 12 5 6 6 7 8 10 10 10 7 12 12 13 9 9 7 9
Wind_Direction
349 346 345 345 344 344 33 357 27 334 34 66 33 166 200 332 328 43 288 216 226 233 283 211 266 226 245 19 277 167 193 153 234 244 284 262 170 213 143 125 234 127 155 266
350 347 346 346 344 350 323 26 270 310 92 129 247 279 284 263 270 242 253 268 220 93 345 316 220 240 256 302 58 171 185 221 254 312 353 351 208 135 90 97 92 194 138 262
351 349 349 348 346 350 113 57 33 327 51 299 96 19 266 266 258 254 206 245 240 309 253 215 262 243 287 333 322 55 107 154 176 223 210 185 166 150 130 121 104 195 222 224
352 351 353 353 350 350 78 27 327 175 318 344 345 280 317 355 2 323 312 314 29 327 278 230 226 214 335 323 1 46 112 208 198 216 210 200 217 167 159 163 190 171 250 204
351 353 356 359 355 348 67 74 33 352 285 308 332 359 0 47 338 286 343 9 309 283 205 223 278 146 130 239 328 24 12 269 245 223 121 298 241 228 73 119 116 288 338 259
352 355 359 5 5 11 45 328 343 103 296 358 63 330 321 2 345 288 276 296 286 272 80 297 261 239 194 184 241 263 73 117 75 253 39 344 347 223 147 220 183 171 228 267
350 358 358 2 11 32 172 273 67 64 277 27 83 307 311 327 309 255 291 315 347 301 317 284 202 151 214 180 220 158 142 111 118 200 42 165 242 283 274 236 185 173 294 186
359 353 354 358 4 6 58 296 49 75 284 277 301 324 289 305 301 264 270 278 254 309 296 17 41 348 0 221 208 189 153 121 98 148 171 272 314 29 19 337 285 214 159 136
347 351 352 356 359 355 50 306 279 92 102 250 290 309 300 292 300 324 285 304 313 350 65 69 153 199 201 223 166 78 71 79 115 112 149 202 241 305 318 289 278 333 285 154
344 349 347 352 355 354 37 278 11 115 209 266 191 212 242 281 318 268 300 329 339 14 20 96 171 252 215 179 166 177 52 19 168 157 212 287 314 304 297 111 255 305 134 69
339 340 344 346 348 352 25 272 333 81 249 274 229 241 231 320 129 154 293 349 335 357 54 33 285 225 291 47 53 109 155 141 200 85 122 264 347 350 68 183 282 323 53 57
336 337 338 336 342 344 32 319 301 37 187 248 254 231 238 215 222 57 322 239 240 246 85 26 321 340 12 358 194 1 137 181 165 154 210 284 313 357 327 232 189 113 103 95
333 334 334 333 334 334 335 258 287 9 335 298 339 246 250 216 223 186 162 282 237 14 184 150 257 311 94 62 267 42 352 131 96 92 319 332 302 302 304 328 140 129 124 127
330 330 330 327 326 324 314 262 220 96 258 303 282 316 310 235 180 202 204 173 41 97 48 99 116 327 40 257 249 148 208 73 126 29 279 287 265 283 226 144 106 117 115 127
324 323 322 322 322 319 311 206 224 183 98 287 285 306 260 276 193 175 186 159 137 86 37 39 118 258 4 310 328 269 196 175 145 204 207 197 206 212 215 190 178 186 145 120
318 317 316 317 318 328 13 349 131 200 213 301 313 291 290 316 277 159 172 188 164 160 138 189 246 209 52 294 279 267 269 245 184 199 141 201 156 183 226 143 129 131 128 119
314 312 309 308 306 127 181 204 165 148 39 265 309 314 280 300 360 85 134 145 205 154 195 153 151 25 182 284 275 265 237 265 246 160 118 66 232 225 172 112 115 96 88 81
311 307 302 301 300 214 303 258 243 149 256 328 296 277 329 357 331 354 22 137 162 245 179 99 166 169 241 237 238 260 277 227 238 217 247 237 222 152 135 109 126 115 116 128
310 307 278 66 76 199 243 102 107 88 134 259 295 275 294 344 305 337 5 102 143 277 180 190 130 195 210 240 265 224 210 185 213 192 188 130 143 157 154 137 128 125 139 134
312 48 77 272 217 265 95 14 37 360 246 151 237 252 265 88 12 307 330 350 239 203 233 108 156 225 260 8 331 295 305 260 158 122 186 187 184 189 193 192 176 152 155 147
31 18 340 280 312 49 9 220 173 190 237 203 233 203 251 291 102 255 174 285 295 282 259 163 137 47 313 323 326 318 316 289 239 246 205 188 187 190 191 187 161 157 162 169
230 266 293 313 19 45 290 242 213 212 246 184 228 247 198 285 103 75 313 278 4 262 335 91 80 278 296 310 317 311 305 289 287 223 229 198 202 204 187 159 159 190 162 135
42 85 335 61 281 35 222 345 127 307 352 300 357 322 264 346 24 305 11 273 237 326 347 86 118 253 305 310 310 310 306 283 309 227 210 201 191 170 162 153 170 163 154 146
123 147 331 163 289 245 205 201 208 226 239 276 269 265 185 261 1 249 288 258 13 11 21 11 307 315 308 311 307 307 310 316 313 234 183 167 171 132 112 159 156 154 160 151
246 156 230 217 244 263 269 227 267 266 256 354 0 18 94 281 281 216 299 261 205 162 223 248 314 312 315 308 313 315 311 323 291 142 124 113 114 104 86 76 73 99 133 142
233 234 285 274 332 311 19 347 295 344 303 63 50 37 324 276 312 264 234 286 53 274 279 273 306 294 297 304 305 306 354 350 122 102 120 112 118 115 108 91 79 78 114 137
269 275 245 232 242 246 293 265 313 299 8 54 70 348 276 310 271 268 27 47 308 287 294 289 277 280 302 313 36 39 56 85 80 86 81 89 107 89 85 84 92 93 99 100